Temperature
22 20 20 20 21 22 22 22 21 22 23 23 22 20 20 19 19 19 18 18 18 18 18 18 18 18 17 17 17 17 17 17 17 17 17 17 17 17 17 17 17 16 16 16
20 20 21 22 22 22 22 22 22 22 23 23 21 20 20 19 19 19 19 19 19 18 18 18 18 17 17 17 17 17 18 17 18 17 18 17 17 17 17 17 17 16 16 16
21 21 23 23 23 23 22 22 22 22 22 21 21 20 20 20 19 19 19 19 19 18 18 18 18 17 17 17 17 17 17 17 17 17 17 17 17 17 17 16 16 16 16 16
21 22 23 23 23 23 22 23 23 23 21 20 20 20 20 19 18 18 18 18 18 18 18 18 18 18 18 17 17 17 17 17 17 17 17 17 17 17 17 17 17 16 16 16
21 22 23 23 23 24 23 23 22 22 20 19 19 19 19 18 19 18 18 18 19 19 18 18 18 18 18 18 17 17 17 17 17 17 17 17 17 17 17 17 17 16 16 16
22 23 23 23 24 24 23 22 20 17 18 19 19 19 19 18 19 19 18 19 19 19 18 18 18 18 18 18 17 17 17 17 17 17 17 17 17 17 17 17 17 16 16 16
22 23 23 24 24 24 23 20 19 20 18 18 18 18 18 19 19 19 18 19 19 19 19 18 18 18 17 18 17 17 17 17 17 17 17 17 17 17 17 17 17 17 16 16
21 21 23 23 23 22 21 20 19 20 19 18 18 18 19 20 19 19 19 19 19 19 19 19 18 18 18 18 17 17 17 17 17 17 17 17 17 17 17 17 17 17 16 16
20 21 23 24 24 23 21 20 19 18 18 18 18 18 19 19 19 18 18 18 18 19 19 19 19 18 18 18 18 18 18 17 17 17 17 17 17 17 17 17 17 16 16 16
20 21 22 23 23 22 22 19 17 17 18 19 19 19 19 20 19 18 18 18 18 19 19 19 19 19 19 19 18 18 18 18 18 17 17 17 17 17 17 17 16 16 16 16
20 20 21 22 23 22 21 19 17 16 17 18 19 19 19 19 19 18 18 18 18 19 19 19 19 19 19 19 18 18 18 18 18 18 18 17 17 17 17 17 17 16 16 16
18 17 18 20 21 21 21 19 17 18 18 16 17 19 20 18 18 18 18 18 19 19 19 19 19 19 19 19 19 18 18 18 18 18 18 17 17 17 17 17 17 17 16 16
18 17 18 19 19 20 20 19 17 16 16 15 17 19 19 17 17 18 18 18 18 19 19 19 19 19 19 19 19 19 19 18 18 18 18 17 17 17 17 17 17 17 16 16
17 16 17 19 19 19 20 19 18 17 16 16 17 19 19 18 17 17 18 18 18 18 19 19 19 19 19 19 19 19 19 19 18 18 18 18 17 17 17 17 17 17 16 16
17 17 17 17 18 19 19 19 18 17 17 17 18 18 18 17 17 17 17 18 18 18 18 18 19 19 19 19 19 19 19 19 18 18 18 18 18 17 17 17 17 17 17 16
14 16 17 17 18 18 19 19 19 18 18 18 18 18 17 16 17 17 17 17 17 17 18 18 19 19 19 19 19 19 19 18 18 18 18 18 18 17 17 17 17 17 16 16
14 15 15 16 17 18 17 18 18 18 18 18 18 18 16 16 15 15 16 16 17 17 17 18 18 18 19 19 19 19 18 18 18 18 18 18 18 17 17 17 17 17 16 16
13 13 13 14 16 16 17 17 18 18 18 17 17 17 16 15 15 15 15 16 16 17 17 17 18 18 18 18 18 18 18 18 18 18 17 17 17 17 17 17 16 16 16 16
12 13 13 13 15 15 17 17 17 17 17 17 17 16 15 15 14 14 14 15 15 16 16 17 17 17 18 18 18 18 18 18 17 17 17 17 17 17 16 16 16 16 16 16
12 12 13 13 15 15 16 17 17 17 16 16 16 15 15 15 15 14 13 14 14 15 16 16 16 17 17 17 17 17 17 17 16 16 16 16 16 16 16 16 16 16 15 15
13 13 13 13 14 15 16 16 16 16 16 15 15 15 15 14 14 13 13 13 14 14 15 15 16 16 16 16 16 16 16 15 15 15 15 15 15 15 15 15 15 15 15 14
13 13 13 13 14 14 15 15 15 15 15 15 15 15 14 13 13 13 13 13 13 14 14 14 14 14 14 15 15 15 15 14 14 14 15 15 15 14 14 14 14 14 14 14
12 12 12 12 13 13 14 14 15 15 14 14 14 14 14 12 12 12 12 13 13 13 13 13 14 13 13 13 14 14 13 13 13 14 14 14 14 13 13 13 13 13 13 13
12 12 12 12 12 13 13 14 14 14 14 14 14 13 13 12 12 12 12 12 12 12 13 13 13 12 12 12 12 12 12 12 13 13 13 13 12 12 12 12 12 12 12 12
12 12 12 12 12 12 13 13 13 13 13 13 13 13 13 12 12 12 12 12 12 12 12 12 12 12 11 12 12 12 12 12 12 12 12 12 12 12 12 11 11 11 11 11
11 11 12 12 12 12 12 12 13 13 12 12 12 12 12 12 12 12 12 11 11 11 11 11 11 11 11 11 11 11 11 11 11 11 11 11 11 11 11 11 11 11 11 10
Wind_Speed
4 4 5 7 7 6 4 5 9 10 6 2 5 5 4 3 5 5 6 6 7 8 7 7 7 8 9 9 12 13 12 10 9 7 6 6 5 4 4 5 9 10 10 10
3 5 9 6 5 5 5 6 8 8 4 0 3 5 3 3 5 6 7 8 8 7 6 8 8 8 10 11 12 13 12 10 10 7 6 4 4 3 3 3 6 9 10 10
9 7 4 5 4 4 6 6 7 7 4 3 3 6 3 2 1 2 4 5 6 9 9 9 9 9 10 11 12 12 12 11 9 8 6 5 4 4 3 3 3 5 9 9
7 7 4 5 6 6 6 7 6 4 1 4 2 4 6 3 3 4 5 5 6 8 9 9 10 10 11 11 10 10 11 11 10 10 9 9 6 5 5 4 4 4 7 8
9 5 7 8 9 8 7 1 0 0 2 1 2 1 8 2 4 6 5 6 6 7 10 11 11 10 10 10 10 10 10 10 9 10 11 9 6 4 4 4 6 5 4 6
8 4 6 8 5 6 4 5 6 6 5 1 3 2 7 5 6 5 5 5 5 7 8 9 9 8 9 10 10 11 11 10 9 10 10 10 9 8 7 6 6 5 4 3
6 6 6 4 2 1 4 5 4 5 4 6 2 3 9 7 5 5 6 5 5 6 7 9 10 10 11 11 11 11 12 10 10 10 10 10 10 10 10 8 8 7 5 4
4 7 5 6 8 7 6 9 7 5 5 6 2 6 8 4 3 3 4 4 4 5 6 8 10 10 11 12 12 12 12 11 11 11 10 9 9 8 7 8 8 8 7 6
7 7 5 3 4 8 6 5 7 7 3 2 6 7 8 2 2 2 2 3 5 6 6 7 9 10 11 12 12 13 13 11 11 11 10 9 9 9 8 8 7 6 6 6
8 5 5 3 3 2 5 8 6 6 5 4 6 6 5 6 4 4 4 4 5 5 6 6 7 9 9 9 9 9 10 11 9 10 10 9 9 9 8 8 8 7 7 6
5 5 5 3 2 4 4 5 5 5 5 6 4 8 6 7 6 6 5 5 6 6 7 7 7 7 7 7 8 9 9 8 9 9 9 9 9 9 8 8 9 8 7 8
3 5 2 5 4 1 4 7 8 6 5 5 4 8 4 4 4 5 5 4 4 5 6 6 6 7 7 8 8 8 9 9 9 9 9 9 8 8 9 9 9 8 8 8
4 5 2 6 5 3 2 3 4 5 5 6 5 7 2 2 1 2 4 4 4 4 4 5 5 6 7 8 7 7 8 8 8 8 9 8 8 9 9 9 8 8 8 8
4 4 6 8 7 4 3 3 5 6 5 6 8 8 5 2 1 2 3 4 5 5 4 4 5 5 6 6 7 7 7 7 7 7 8 8 8 9 9 8 8 8 8 8
4 4 5 7 7 5 6 6 7 8 8 9 8 7 7 3 2 3 4 5 6 5 4 4 5 5 5 5 5 6 6 6 6 7 7 7 6 6 6 7 7 7 8 9
3 4 3 4 6 7 7 8 8 8 7 7 5 6 4 2 3 4 5 7 7 6 5 4 4 4 4 5 5 5 5 5 6 7 7 6 5 5 5 6 7 7 7 7
2 5 4 5 4 2 7 9 10 7 6 8 9 7 6 4 5 4 5 6 6 6 5 4 3 3 3 3 4 4 4 5 6 6 5 5 5 5 5 5 5 6 7 7
5 4 3 3 1 8 8 4 6 7 6 6 5 6 8 8 7 7 5 6 6 6 6 5 4 3 2 3 3 4 5 5 5 5 4 4 4 4 4 4 4 5 4 5
4 5 3 3 4 6 6 3 3 4 4 5 8 9 9 11 9 7 7 8 7 6 6 6 5 5 5 4 4 6 6 5 5 4 3 3 4 3 3 3 3 3 3 4
3 3 3 3 4 6 6 3 1 2 3 3 8 10 10 8 5 3 6 9 9 9 8 8 8 9 9 6 6 9 8 7 5 4 3 3 3 3 3 2 2 1 2 1
1 1 3 4 5 6 4 4 0 4 5 3 6 8 7 4 6 9 10 10 10 9 10 10 11 11 9 8 9 11 9 7 5 6 6 5 4 3 2 2 2 2 2 2
3 3 4 3 4 6 4 2 3 4 1 4 5 7 11 13 15 13 12 11 11 11 12 11 12 12 10 9 10 11 9 6 6 7 8 7 6 5 4 4 4 3 3 2
4 5 3 5 5 4 3 3 3 1 3 4 6 11 16 16 14 13 13 12 11 11 11 10 12 12 11 10 11 11 6 6 8 9 8 7 8 7 6 5 4 4 3 2
3 1 2 3 4 3 3 2 2 4 5 8 11 14 16 17 16 15 13 12 11 10 10 10 12 13 11 10 11 9 7 7 9 9 8 7 7 7 7 6 5 4 4 3
3 1 1 3 3 3 4 4 5 8 10 12 13 14 15 18 16 14 13 11 10 10 9 10 11 11 10 9 10 9 8 8 10 9 8 7 7 6 6 6 5 4 3 2
1 2 2 2 2 0 2 4 8 11 11 13 16 15 13 15 15 14 13 10 10 9 9 10 10 10 9 9 10 9 8 8 9 8 7 6 5 5 5 5 6 8 7 8
Wind_Direction
137 110 206 214 198 210 238 265 281 280 288 280 264 269 255 204 187 187 186 184 194 198 192 180 185 180 176 179 176 175 175 171 161 159 157 155 160 156 156 165 162 160 159 157
74 244 228 210 207 213 230 274 283 295 343 5 285 285 253 209 205 202 199 200 202 190 179 178 179 179 180 181 180 176 175 171 165 167 158 151 141 144 146 150 153 159 158 158
194 231 201 190 228 241 252 233 255 271 328 23 356 320 285 273 243 227 224 213 200 193 190 186 182 183 184 182 182 180 175 170 163 155 137 127 111 100 116 141 151 162 162 162
231 248 225 236 243 207 265 245 234 255 300 300 28 290 289 266 282 250 239 225 212 198 191 189 186 187 189 186 180 172 168 165 162 159 161 164 163 163 176 167 161 157 165 163
229 215 197 222 231 196 226 276 64 297 153 337 357 211 288 305 266 256 244 232 220 198 190 189 189 191 186 179 172 168 163 165 165 169 171 170 163 153 144 142 150 158 160 166
240 225 205 215 229 196 180 68 52 49 71 318 265 193 280 248 234 246 235 234 218 198 192 189 183 179 176 170 168 168 168 170 169 169 170 171 166 158 155 159 165 166 162 167
282 266 233 198 250 343 125 94 21 353 0 258 270 229 252 250 229 215 219 226 218 195 185 181 175 176 175 173 172 173 171 176 173 173 175 178 174 170 174 174 175 172 172 181
222 281 247 201 194 195 181 148 162 210 237 278 299 246 256 248 225 206 203 207 195 179 179 181 178 177 178 177 176 175 177 181 178 179 180 178 174 177 184 182 177 182 188 190
191 253 291 242 195 154 149 176 163 141 162 268 280 281 300 238 178 168 173 172 174 173 177 182 177 175 177 179 180 180 178 179 181 182 177 178 180 184 186 182 179 184 188 188
168 238 290 302 84 56 148 142 107 129 156 249 285 278 256 259 225 204 191 192 186 173 174 173 172 176 179 179 174 171 173 179 179 178 180 186 187 189 184 179 184 188 193 189
151 186 298 360 179 205 121 118 120 128 156 166 247 271 232 226 213 198 200 193 184 180 180 179 172 170 167 162 163 169 172 171 175 180 182 183 187 187 183 187 193 194 193 191
129 133 244 273 273 249 178 171 150 159 209 183 191 263 280 214 210 182 187 190 182 175 173 167 158 155 156 162 166 174 176 179 184 182 182 188 186 183 187 196 197 192 195 195
129 113 55 344 339 356 102 150 153 132 129 161 181 260 314 62 126 168 165 165 159 158 156 146 144 157 166 168 171 179 179 184 182 175 180 185 187 188 195 199 195 192 195 195
120 129 169 200 224 238 253 208 160 140 162 199 217 243 290 307 202 170 154 148 140 141 147 149 153 159 164 166 171 179 180 178 175 172 177 188 195 197 198 197 195 195 195 196
108 175 216 234 244 229 230 234 196 193 196 198 227 225 252 238 199 170 152 130 123 124 138 161 166 162 159 161 168 178 178 173 170 170 180 195 194 190 191 196 198 198 200 207
100 179 202 257 252 235 244 245 225 219 209 215 228 250 230 150 122 116 127 131 126 128 140 152 155 156 169 179 177 178 181 172 166 174 186 184 173 176 191 202 199 199 206 209
164 165 173 241 258 263 246 229 220 214 206 188 207 217 155 137 124 115 114 118 124 122 121 119 126 148 170 179 176 177 177 156 156 170 173 165 169 183 197 200 198 202 207 207
155 154 177 218 186 230 244 238 216 209 221 199 185 164 156 139 109 83 81 104 102 98 99 98 101 104 106 113 128 133 123 130 139 143 147 152 167 189 192 188 198 206 203 203
158 156 165 173 221 265 283 264 206 193 239 190 166 152 138 127 100 68 60 79 87 84 83 82 85 86 83 91 112 112 108 114 118 126 136 147 160 163 161 185 199 200 201 210
89 126 159 180 212 236 250 278 283 136 250 180 157 157 151 143 127 119 86 84 81 74 75 78 79 75 70 62 91 99 95 94 92 92 95 97 110 121 138 171 162 159 181 199
52 107 197 209 232 261 270 291 349 187 226 157 153 154 149 136 125 117 102 86 79 75 72 72 70 66 58 58 80 85 82 77 74 77 77 72 75 88 91 87 81 91 101 100
209 211 214 195 218 253 315 328 208 221 141 119 124 127 117 111 110 108 99 90 82 76 71 71 72 64 52 54 75 79 73 67 73 75 72 63 57 61 64 70 67 70 82 83
216 206 210 208 232 274 299 255 261 165 126 118 120 124 123 118 113 107 99 92 84 80 75 73 76 68 54 50 65 72 54 59 71 69 63 58 56 54 54 62 63 63 62 66
279 199 216 262 280 305 335 4 63 101 111 111 117 121 120 117 115 108 101 95 88 80 76 75 76 71 59 50 56 58 51 62 71 67 58 54 55 51 49 52 55 61 56 53
273 260 244 266 293 4 26 52 94 101 103 105 104 110 116 116 113 110 104 98 93 86 77 77 79 74 61 53 50 43 45 63 68 63 55 50 48 48 46 48 48 48 44 47
282 229 226 259 295 1 28 64 95 105 108 111 112 106 102 109 111 107 103 99 95 89 83 80 76 73 63 56 48 38 40 59 68 62 51 48 47 47 49 48 44 42 44 42
Height
1480 1486 1491 1488 1487 1487 1489 1492 1493 1483 1473 1475 1476 1476 1473 1471 1472 1473 1474 1475 1477 1478 1480 1482 1484 1486 1489 1492 1495 1500 1506 1512 1518 1522 1527 1531 1535 1539 1542 1546 1548 1550 1552 1554
1484 1487 1479 1479 1481 1484 1487 1491 1489 1479 1473 1475 1477 1476 1471 1471 1471 1471 1472 1473 1474 1476 1478 1480 1482 1484 1487 1489 1493 1498 1503 1510 1515 1521 1526 1530 1534 1538 1541 1545 1547 1549 1551 1553
1483 1478 1473 1477 1480 1484 1485 1488 1485 1483 1477 1476 1479 1480 1474 1471 1470 1470 1471 1471 1472 1473 1475 1477 1479 1481 1484 1487 1491 1495 1501 1508 1513 1519 1525 1529 1533 1536 1540 1543 1545 1548 1550 1552
1478 1472 1473 1476 1478 1479 1486 1475 1476 1478 1485 1491 1487 1497 1479 1473 1471 1469 1469 1469 1470 1471 1473 1475 1477 1479 1482 1486 1490 1495 1500 1506 1512 1517 1522 1526 1530 1533 1538 1541 1544 1547 1549 1551
1475 1468 1470 1474 1471 1471 1474 1470 1474 1478 1485 1492 1491 1497 1487 1475 1473 1468 1467 1466 1467 1468 1470 1472 1475 1478 1480 1484 1488 1493 1499 1505 1510 1516 1521 1525 1529 1533 1537 1540 1543 1546 1548 1550
1467 1464 1464 1464 1462 1464 1467 1474 1480 1488 1494 1503 1493 1497 1491 1478 1470 1466 1464 1464 1464 1466 1468 1471 1474 1477 1479 1483 1487 1492 1498 1504 1509 1514 1519 1523 1527 1531 1535 1538 1541 1544 1546 1548
1471 1464 1459 1459 1464 1465 1469 1486 1504 1505 1512 1507 1493 1495 1487 1466 1462 1461 1461 1462 1462 1464 1466 1469 1472 1474 1477 1481 1486 1491 1496 1502 1507 1512 1516 1521 1526 1530 1533 1536 1539 1542 1544 1546
1480 1478 1460 1456 1460 1467 1470 1480 1502 1511 1513 1505 1494 1494 1474 1460 1458 1459 1459 1460 1461 1462 1464 1467 1470 1473 1476 1481 1486 1490 1495 1500 1505 1510 1514 1519 1524 1527 1531 1534 1537 1540 1542 1545
1478 1475 1456 1452 1452 1458 1470 1477 1477 1495 1501 1505 1498 1485 1468 1457 1458 1458 1458 1459 1459 1461 1463 1466 1469 1473 1477 1481 1485 1489 1494 1499 1504 1508 1513 1517 1521 1524 1528 1532 1535 1538 1540 1543
1465 1472 1460 1454 1453 1456 1460 1469 1485 1495 1506 1508 1497 1488 1479 1461 1459 1458 1458 1458 1459 1461 1463 1466 1469 1472 1476 1480 1484 1489 1493 1497 1502 1507 1511 1515 1518 1522 1526 1529 1532 1535 1538 1540
1460 1470 1466 1460 1460 1462 1466 1472 1479 1491 1494 1504 1504 1490 1460 1456 1454 1455 1456 1457 1458 1460 1462 1465 1468 1471 1476 1479 1483 1487 1492 1496 1500 1504 1508 1512 1516 1519 1523 1526 1529 1532 1535 1537
1461 1470 1476 1467 1457 1456 1458 1465 1476 1486 1490 1494 1497 1485 1452 1451 1451 1452 1455 1456 1457 1459 1461 1464 1467 1470 1474 1478 1482 1486 1490 1494 1498 1502 1505 1509 1513 1516 1520 1523 1526 1529 1532 1534
1461 1471 1481 1478 1471 1462 1461 1463 1468 1476 1485 1494 1495 1478 1452 1451 1451 1452 1453 1455 1457 1459 1461 1464 1466 1469 1473 1476 1480 1484 1488 1492 1496 1499 1503 1507 1510 1513 1516 1520 1523 1526 1528 1531
1458 1469 1477 1481 1475 1465 1464 1462 1466 1473 1484 1487 1480 1467 1455 1453 1452 1452 1453 1454 1456 1458 1461 1463 1465 1468 1471 1475 1479 1482 1486 1490 1493 1497 1500 1503 1507 1510 1513 1516 1520 1522 1525 1527
1458 1468 1466 1465 1460 1460 1460 1459 1461 1466 1467 1472 1465 1462 1454 1451 1450 1451 1452 1453 1456 1458 1460 1462 1465 1467 1470 1474 1478 1481 1484 1488 1491 1495 1498 1501 1504 1507 1510 1513 1516 1519 1521 1523
1460 1465 1465 1464 1458 1457 1458 1455 1455 1457 1457 1459 1457 1457 1449 1449 1449 1450 1451 1453 1455 1457 1459 1462 1464 1467 1470 1473 1476 1479 1482 1486 1489 1492 1495 1498 1501 1504 1507 1510 1512 1514 1517 1519
1463 1466 1470 1471 1460 1459 1462 1452 1450 1449 1447 1449 1453 1449 1447 1449 1449 1450 1451 1453 1455 1456 1458 1461 1463 1466 1469 1472 1475 1477 1481 1484 1486 1489 1492 1495 1498 1501 1503 1506 1508 1510 1512 1514
1463 1467 1471 1471 1467 1473 1453 1441 1439 1441 1441 1441 1441 1442 1445 1447 1450 1452 1453 1454 1456 1457 1459 1461 1463 1466 1469 1471 1474 1477 1480 1482 1485 1487 1490 1493 1495 1498 1500 1502 1503 1505 1507 1509
1458 1464 1470 1472 1471 1462 1448 1440 1439 1441 1442 1438 1440 1442 1445 1448 1450 1454 1455 1455 1457 1459 1460 1462 1464 1466 1468 1471 1473 1476 1478 1481 1483 1486 1488 1490 1493 1495 1497 1498 1499 1501 1503 1504
1459 1461 1466 1469 1467 1465 1449 1438 1436 1439 1444 1437 1438 1441 1445 1446 1452 1457 1457 1458 1459 1460 1461 1462 1464 1466 1468 1471 1473 1474 1477 1479 1482 1484 1487 1489 1491 1492 1494 1495 1496 1498 1499 1500
1462 1463 1465 1466 1464 1454 1442 1438 1438 1448 1443 1436 1437 1440 1443 1446 1449 1456 1458 1460 1461 1462 1463 1465 1466 1467 1469 1472 1474 1475 1477 1480 1482 1484 1486 1488 1489 1491 1492 1493 1493 1495 1496 1497
1461 1463 1463 1463 1463 1457 1440 1438 1440 1439 1435 1435 1438 1441 1444 1448 1451 1456 1459 1462 1464 1465 1467 1468 1469 1470 1473 1475 1476 1477 1479 1482 1484 1485 1486 1487 1488 1489 1490 1491 1491 1493 1494 1495
1457 1457 1456 1456 1454 1444 1440 1438 1437 1436 1435 1436 1439 1442 1444 1449 1454 1458 1461 1464 1467 1469 1471 1473 1474 1475 1477 1478 1479 1480 1483 1485 1485 1486 1487 1488 1489 1490 1490 1491 1491 1492 1493 1493
1453 1451 1452 1450 1445 1442 1439 1437 1436 1436 1437 1439 1441 1444 1447 1451 1456 1460 1464 1468 1471 1474 1475 1477 1479 1480 1481 1483 1483 1484 1486 1487 1487 1488 1489 1489 1490 1491 1491 1491 1492 1492 1492 1492
1452 1450 1450 1448 1444 1441 1439 1438 1438 1439 1441 1443 1446 1449 1452 1455 1460 1464 1468 1472 1476 1478 1480 1482 1483 1484 1486 1487 1487 1488 1489 1489 1490 1490 1491 1491 1492 1492 1492 1492 1492 1492 1492 1492
1451 1450 1449 1447 1444 1443 1443 1441 1441 1442 1444 1447 1450 1454 1458 1461 1464 1468 1472 1477 1480 1483 1485 1486 1487 1488 1490 1491 1491 1492 1493 1493 1493 1493 1493 1493 1494 1494 1494 1494 1494 1493 1493 1493